Weather Roundup
Issued by NWS Chicago, IL

Home | Current Version | Previous Version | Text Only | Print | Product List | Glossary Off
Versions: 1 2 3 4 5 6 7 8 9 10 11 12 13 14 15 16 17 18 19 20 21 22 23 24 25 26 27 28 29 30 31 32 33 34 35 36 37 38 39 40 41 42 43 44 45 46 47 48 49 50

000
NZUS59 KLOT 041712
HRRLOT

CHICAGO AREA WEATHER ROUNDUP
NATIONAL WEATHER SERVICE CHICAGO/ROMEOVILLE IL
1200 PM CDT TUE AUG 04 2015

NOTE: "FAIR" INDICATES FEW OR NO CLOUDS BELOW 12,000 FEET WITH NO
SIGNIFICANT WEATHER AND/OR OBSTRUCTIONS TO VISIBILITY.

* THESE STATIONS ARE NOT UNDER NWS QUALITY CONTROL. THEY ALSO MAY NOT
  REPORT WEATHER SUCH AS PRECIPITATION OR FOG.

ILZ005-006-012>014-019>023-041800-
NORTHEAST ILLINOIS

CITY           SKY/WX    TMP DP  RH WIND       PRES   REMARKS
OHARE          PTSUNNY   79  50  36 W12       29.97S
MIDWAY         PTSUNNY   81  50  33 W14       29.97S HX  80
AURORA         MOSUNNY   77  55  46 NW10      29.99S
LANSING*       SUNNY     79  51  36 NW8       29.98S
JOLIET*        MOSUNNY   81  53  38 W9G17     29.99S HX  80
WAUKEGAN       MOSUNNY   78  54  43 SW8       29.96F
DUPAGE AIRPORT MOSUNNY   79  54  41 W10       29.98S
WHEELING       SUNNY     79  50  36 NW12      29.98S
KANKAKEE*      MOSUNNY   79  58  48 W7        30.01S HX  80
MORRIS*        MOSUNNY   77  56  47 W10G16    29.98F
LEWIS AIRPORT* MOSUNNY   78  52  40 W10       29.99S
NORTHERLY IS     N/A     79  48  33 W9          N/A
$$

WIZ051-052-058>065-066-070>072-041800-
SOUTHEAST WISCONSIN

CITY           SKY/WX    TMP DP  RH WIND       PRES   REMARKS
MILWAUKEE      MOSUNNY   78  51  38 W15G21    29.96S
KENOSHA*       MOSUNNY   76  56  49 W15G22    29.96F
RACINE*        MOSUNNY   77  53  43 W14G21    29.97S
BURLINGTON     MOSUNNY   76  51  42 NW9G18    29.97F
WAUKESHA       MOSUNNY   73  54  49 W9        29.99R
WEST BEND      MOSUNNY   73  50  43 NW12      29.97S
$$

INZ001>003-010>013-019-020-041800-
NORTHWEST INDIANA

CITY           SKY/WX    TMP DP  RH WIND       PRES   REMARKS
GARY*          PTSUNNY   79  50  36 W10       29.98S
MICHIGAN CITY* NOT AVBL
RENSSELAER*    NOT AVBL
VALPARAISO     SUNNY     78  52  40 VRB7      29.99S
$$

LMZ740>746-041800-
SOUTHERN LAKE MICHIGAN

STATION/POSITION TIME  SKY/WX   TEMP WIND        PRES    VSBY
                                AIR  DIR/SP/G
                 (UTC)          (F)  (DEG/KT/KT) (MB)    (MI)
HARRISON CRIB    1600            75  270/ 11/ 13   N/A
BURNHAM HARBOR   1700            78  320/  8/ 14   N/A
CALUMET HARBOR   1600            77  230/  6/ 11   N/A
BURNS HARBOR     1600            73  330/  4/  5 1015.6F
MICHIGAN CITY    1600            71  240/  8/  8   N/A
$$

ABBREVIATIONS USED IN REMARKS
   TC - TEMPERATURE IN CELSIUS
  WCI - WIND CHILL INDEX
   HX - HEAT INDEX
  VSB - VISIBILITY
$$


USA.gov is the U.S. government's official web portal to all federal, state and local government web resources and services.